Simultaneous Nadir Overpasses (SNOs) Predictions

Prediction of SNOs between GOES-15 and METOP-C Satellite Orbit:

Table of predicted SNOs for the next 14.0 days since TLE Epoch: 6/13/2025
Index Date Time (GOES-15) GOES-15 Lat,Lon METOP-C Lat,Lon Distance(km) Time Diff (sec)
1 06/16/2025 05:23:48 -0.19, 61.31 -0.19, 61.42 12.55 80
2 06/18/2025 17:22:09 0.18, 61.33 0.28, 61.82 55.71 80
3 06/20/2025 05:43:41 -0.15, 61.29 0.75, 57.27 458.85 80
4 06/21/2025 05:20:22 -0.17, 61.30 -0.41, 62.25 109.65 80
5 06/22/2025 17:42:01 0.14, 61.33 -0.70, 57.68 417.28 80
6 06/23/2025 17:18:43 0.16, 61.34 0.47, 62.66 150.95 80
7 06/25/2025 05:40:13 -0.13, 61.31 0.61, 58.12 364.62 80
8 06/26/2025 05:16:55 -0.16, 61.32 -0.56, 63.10 203.03 80
9 06/27/2025 17:38:35 0.12, 61.37 -0.49, 58.51 324.78 80
